Time,TemperatureF,DewpointF,PressureIn,WindDirection,WindDirectionDegrees,WindSpeedMPH,WindSpeedGustMPH,Humidity,HourlyPrecipIn,Conditions,Clouds,dailyrainin,SoftwareType,DateUTC
2013-02-25 00:00:00,34.1,22.9,30.07,WNW,283,2.0,8.0,63,0.00,,,0.00,WUHU216DAVISVP2,2013-02-25 05:00:00,
2013-02-25 00:05:00,34.0,23.2,30.07,WNW,293,1.0,8.0,64,0.00,,,0.00,WUHU216DAVISVP2,2013-02-25 05:05:00,
2013-02-25 00:10:00,34.0,23.2,30.07,West,263,5.0,6.0,64,0.00,,,0.00,WUHU216DAVISVP2,2013-02-25 05:10:00,
2013-02-25 00:15:00,33.9,23.1,30.07,SW,235,2.0,6.0,64,0.00,,,0.00,WUHU216DAVISVP2,2013-02-25 05:15:00,
2013-02-25 00:20:00,33.9,23.1,30.07,NE,43,4.0,6.0,64,0.00,,,0.00,WUHU216DAVISVP2,2013-02-25 05:20:00,
2013-02-25 00:25:00,33.8,23.0,30.07,NW,321,2.0,5.0,64,0.00,,,0.00,WUHU216DAVISVP2,2013-02-25 05:25:00,
2013-02-25 00:31:00,33.7,23.3,30.08,West,278,1.0,5.0,65,0.00,,,0.00,WUHU216DAVISVP2,2013-02-25 05:31:00,
2013-02-25 00:36:00,33.7,23.3,30.08,WNW,298,0.0,5.0,65,0.00,,,0.00,WUHU216DAVISVP2,2013-02-25 05:36:00,
2013-02-25 00:41:00,33.5,23.4,30.08,WNW,297,1.0,5.0,66,0.00,,,0.00,WUHU216DAVISVP2,2013-02-25 05:41:00,
2013-02-25 00:46:00,33.3,23.2,30.08,West,269,2.0,5.0,66,0.00,,,0.00,WUHU216DAVISVP2,2013-02-25 05:46:00,
2013-02-25 00:51:00,33.3,22.8,30.08,WSW,247,3.0,5.0,65,0.00,,,0.00,WUHU216DAVISVP2,2013-02-25 05:51:00,
2013-02-25 00:56:00,33.2,22.8,30.08,WSW,237,2.0,5.0,65,0.00,,,0.00,WUHU216DAVISVP2,2013-02-25 05:56:00,
2013-02-25 01:01:00,33.1,22.7,30.08,WSW,250,0.0,5.0,65,0.00,,,0.00,WUHU216DAVISVP2,2013-02-25 06:01:00,
2013-02-25 01:06:00,33.0,22.9,30.09,West,261,2.0,5.0,66,0.00,,,0.00,WUHU216DAVISVP2,2013-02-25 06:06:00,
2013-02-25 01:11:00,32.9,23.1,30.08,West,274,2.0,4.0,67,0.00,,,0.00,WUHU216DAVISVP2,2013-02-25 06:11:00,
2013-02-25 01:16:00,32.9,23.2,30.08,West,270,0.0,4.0,67,0.00,,,0.00,WUHU216DAVISVP2,2013-02-25 06:16:00,
2013-02-25 01:21:00,32.9,23.2,30.09,NNW,328,3.0,4.0,67,0.00,,,0.00,WUHU216DAVISVP2,2013-02-25 06:21:00,
2013-02-25 01:26:00,32.8,23.0,30.09,West,260,1.0,4.0,67,0.00,,,0.00,WUHU216DAVISVP2,2013-02-25 06:26:00,
2013-02-25 01:31:00,32.6,22.8,30.09,WSW,245,0.0,3.0,67,0.00,,,0.00,WUHU216DAVISVP2,2013-02-25 06:31:00,
2013-02-25 01:36:00,32.5,22.8,30.09,WSW,245,2.0,3.0,67,0.00,,,0.00,WUHU216DAVISVP2,2013-02-25 06:36:00,
2013-02-25 01:41:00,32.4,22.7,30.09,West,266,0.0,3.0,67,0.00,,,0.00,WUHU216DAVISVP2,2013-02-25 06:41:00,
2013-02-25 01:46:00,32.2,22.5,30.09,West,270,3.0,3.0,67,0.00,,,0.00,WUHU216DAVISVP2,2013-02-25 06:46:00,
2013-02-25 01:51:00,32.2,22.5,30.09,West,272,0.0,3.0,67,0.00,,,0.00,WUHU216DAVISVP2,2013-02-25 06:51:00,
2013-02-25 01:56:00,32.1,22.8,30.09,West,271,0.0,3.0,68,0.00,,,0.00,WUHU216DAVISVP2,2013-02-25 06:56:00,
2013-02-25 02:01:00,32.0,22.7,30.10,West,275,2.0,3.0,68,0.00,,,0.00,WUHU216DAVISVP2,2013-02-25 07:01:00,
2013-02-25 02:06:00,31.9,22.6,30.10,West,273,1.0,3.0,68,0.00,,,0.00,WUHU216DAVISVP2,2013-02-25 07:06:00,
2013-02-25 02:11:00,31.8,22.9,30.09,WNW,283,1.0,3.0,69,0.00,,,0.00,WUHU216DAVISVP2,2013-02-25 07:11:00,
2013-02-25 02:16:00,31.8,22.9,30.09,West,270,1.0,3.0,69,0.00,,,0.00,WUHU216DAVISVP2,2013-02-25 07:16:00,
2013-02-25 02:21:00,31.8,22.9,30.09,NW,312,0.0,3.0,69,0.00,,,0.00,WUHU216DAVISVP2,2013-02-25 07:21:00,
2013-02-25 02:26:00,31.8,22.9,30.09,NW,314,1.0,5.0,69,0.00,,,0.00,WUHU216DAVISVP2,2013-02-25 07:26:00,
2013-02-25 02:31:00,31.7,23.1,30.09,WNW,282,3.0,5.0,70,0.00,,,0.00,WUHU216DAVISVP2,2013-02-25 07:31:00,
2013-02-25 02:36:00,31.8,23.5,30.10,NW,308,2.0,5.0,71,0.00,,,0.00,WUHU216DAVISVP2,2013-02-25 07:36:00,
2013-02-25 02:41:00,31.8,23.5,30.10,WNW,301,2.0,5.0,71,0.00,,,0.00,WUHU216DAVISVP2,2013-02-25 07:41:00,
2013-02-25 02:46:00,31.7,23.4,30.09,WNW,299,2.0,4.0,71,0.00,,,0.00,WUHU216DAVISVP2,2013-02-25 07:46:00,
2013-02-25 02:51:00,31.6,23.0,30.09,WNW,297,4.0,6.0,70,0.00,,,0.00,WUHU216DAVISVP2,2013-02-25 07:51:00,
2013-02-25 02:56:00,31.7,23.1,30.09,West,270,2.0,6.0,70,0.00,,,0.00,WUHU216DAVISVP2,2013-02-25 07:56:00,
2013-02-25 03:01:00,31.8,22.9,30.09,WNW,302,2.0,6.0,69,0.00,,,0.00,WUHU216DAVISVP2,2013-02-25 08:01:00,
2013-02-25 03:06:00,31.7,22.8,30.09,NW,308,4.0,6.0,69,0.00,,,0.00,WUHU216DAVISVP2,2013-02-25 08:06:00,
2013-02-25 03:11:00,31.7,22.4,30.08,WNW,295,2.0,6.0,68,0.00,,,0.00,WUHU216DAVISVP2,2013-02-25 08:11:00,
2013-02-25 03:16:00,31.7,22.8,30.09,NW,323,4.0,6.0,69,0.00,,,0.00,WUHU216DAVISVP2,2013-02-25 08:16:00,
2013-02-25 03:21:00,31.7,23.1,30.09,NW,315,2.0,6.0,70,0.00,,,0.00,WUHU216DAVISVP2,2013-02-25 08:21:00,
2013-02-25 03:26:00,31.7,23.1,30.09,WNW,299,1.0,6.0,70,0.00,,,0.00,WUHU216DAVISVP2,2013-02-25 08:26:00,
2013-02-25 03:31:00,31.5,22.9,30.09,West,264,3.0,5.0,70,0.00,,,0.00,WUHU216DAVISVP2,2013-02-25 08:31:00,
2013-02-25 03:36:00,31.3,23.0,30.09,West,266,1.0,5.0,71,0.00,,,0.00,WUHU216DAVISVP2,2013-02-25 08:36:00,
2013-02-25 03:41:00,31.2,22.9,30.10,WSW,256,0.0,3.0,71,0.00,,,0.00,WUHU216DAVISVP2,2013-02-25 08:41:00,
2013-02-25 03:46:00,31.2,22.9,30.10,NW,314,1.0,3.0,71,0.00,,,0.00,WUHU216DAVISVP2,2013-02-25 08:46:00,
2013-02-25 03:51:00,31.2,22.9,30.10,NW,314,0.0,3.0,71,0.00,,,0.00,WUHU216DAVISVP2,2013-02-25 08:51:00,
2013-02-25 03:56:00,31.1,22.8,30.10,NW,314,0.0,3.0,71,0.00,,,0.00,WUHU216DAVISVP2,2013-02-25 08:56:00,
2013-02-25 04:01:00,31.0,23.0,30.10,NW,322,2.0,4.0,72,0.00,,,0.00,WUHU216DAVISVP2,2013-02-25 09:01:00,
2013-02-25 04:06:00,31.0,22.8,30.10,NW,319,2.0,4.0,71,0.00,,,0.00,WUHU216DAVISVP2,2013-02-25 09:06:00,
2013-02-25 04:12:00,31.1,22.5,30.10,NW,304,1.0,4.0,70,0.00,,,0.00,WUHU216DAVISVP2,2013-02-25 09:12:00,
2013-02-25 04:17:00,31.2,22.6,30.10,WNW,299,0.0,4.0,70,0.00,,,0.00,WUHU216DAVISVP2,2013-02-25 09:17:00,
2013-02-25 04:22:00,31.1,22.5,30.10,NW,313,2.0,4.0,70,0.00,,,0.00,WUHU216DAVISVP2,2013-02-25 09:22:00,
2013-02-25 04:27:00,31.0,23.1,30.10,NW,312,0.0,4.0,72,0.00,,,0.00,WUHU216DAVISVP2,2013-02-25 09:27:00,
2013-02-25 04:32:00,30.9,23.0,30.10,NW,312,1.0,3.0,72,0.00,,,0.00,WUHU216DAVISVP2,2013-02-25 09:32:00,
2013-02-25 04:37:00,30.9,22.7,30.10,WSW,249,1.0,3.0,71,0.00,,,0.00,WUHU216DAVISVP2,2013-02-25 09:37:00,
2013-02-25 04:42:00,30.9,22.7,30.10,WSW,249,1.0,3.0,71,0.00,,,0.00,WUHU216DAVISVP2,2013-02-25 09:42:00,
2013-02-25 04:47:00,30.8,22.6,30.10,SW,232,1.0,3.0,71,0.00,,,0.00,WUHU216DAVISVP2,2013-02-25 09:47:00,
2013-02-25 04:52:00,30.8,22.5,30.10,SW,232,0.0,3.0,71,0.00,,,0.00,WUHU216DAVISVP2,2013-02-25 09:52:00,
2013-02-25 04:57:00,30.7,22.4,30.10,SW,232,0.0,3.0,71,0.00,,,0.00,WUHU216DAVISVP2,2013-02-25 09:57:00,
2013-02-25 05:02:00,30.6,22.4,30.10,SW,233,0.0,3.0,71,0.00,,,0.00,WUHU216DAVISVP2,2013-02-25 10:02:00,
2013-02-25 05:07:00,30.5,22.6,30.10,WNW,299,2.0,4.0,72,0.00,,,0.00,WUHU216DAVISVP2,2013-02-25 10:07:00,
2013-02-25 05:12:00,30.6,23.0,30.10,WNW,299,1.0,4.0,73,0.00,,,0.00,WUHU216DAVISVP2,2013-02-25 10:12:00,
2013-02-25 05:17:00,30.7,23.1,30.10,NW,305,2.0,4.0,73,0.00,,,0.00,WUHU216DAVISVP2,2013-02-25 10:17:00,
2013-02-25 05:22:00,30.7,22.8,30.11,NW,323,1.0,6.0,72,0.00,,,0.00,WUHU216DAVISVP2,2013-02-25 10:22:00,
2013-02-25 05:27:00,30.8,22.9,30.12,WNW,297,1.0,6.0,72,0.00,,,0.00,WUHU216DAVISVP2,2013-02-25 10:27:00,
2013-02-25 05:32:00,30.8,23.2,30.12,NW,306,2.0,6.0,73,0.00,,,0.00,WUHU216DAVISVP2,2013-02-25 10:32:00,
2013-02-25 05:37:00,30.7,23.1,30.13,West,270,2.0,6.0,73,0.00,,,0.00,WUHU216DAVISVP2,2013-02-25 10:37:00,
2013-02-25 05:42:00,30.7,23.1,30.13,West,270,1.0,4.0,73,0.00,,,0.00,WUHU216DAVISVP2,2013-02-25 10:42:00,
2013-02-25 05:47:00,30.7,22.7,30.13,WNW,287,1.0,4.0,72,0.00,,,0.00,WUHU216DAVISVP2,2013-02-25 10:47:00,
2013-02-25 05:52:00,30.6,22.7,30.13,WNW,287,0.0,3.0,72,0.00,,,0.00,WUHU216DAVISVP2,2013-02-25 10:52:00,
2013-02-25 05:57:00,30.5,22.9,30.14,WSW,240,0.0,3.0,73,0.00,,,0.00,WUHU216DAVISVP2,2013-02-25 10:57:00,
2013-02-25 06:02:00,30.5,22.5,30.14,SW,227,2.0,3.0,72,0.00,,,0.00,WUHU216DAVISVP2,2013-02-25 11:02:00,
2013-02-25 06:07:00,30.5,22.5,30.13,WSW,237,2.0,3.0,72,0.00,,,0.00,WUHU216DAVISVP2,2013-02-25 11:07:00,
2013-02-25 06:12:00,30.4,22.2,30.13,WSW,237,0.0,3.0,71,0.00,,,0.00,WUHU216DAVISVP2,2013-02-25 11:12:00,
2013-02-25 06:17:00,30.3,22.4,30.13,WSW,237,1.0,3.0,72,0.00,,,0.00,WUHU216DAVISVP2,2013-02-25 11:17:00,
2013-02-25 06:22:00,30.2,22.3,30.14,WSW,237,1.0,3.0,72,0.00,,,0.00,WUHU216DAVISVP2,2013-02-25 11:22:00,
2013-02-25 06:27:00,30.1,22.5,30.14,WSW,237,0.0,2.0,73,0.00,,,0.00,WUHU216DAVISVP2,2013-02-25 11:27:00,
2013-02-25 06:32:00,30.0,22.4,30.14,WSW,237,2.0,2.0,73,0.00,,,0.00,WUHU216DAVISVP2,2013-02-25 11:32:00,
2013-02-25 06:37:00,29.9,22.3,30.15,WSW,251,0.0,3.0,73,0.00,,,0.00,WUHU216DAVISVP2,2013-02-25 11:37:00,
2013-02-25 06:42:00,29.9,22.7,30.15,WSW,251,0.0,3.0,74,0.00,,,0.00,WUHU216DAVISVP2,2013-02-25 11:42:00,
2013-02-25 06:47:00,29.9,22.3,30.15,WSW,251,2.0,3.0,73,0.00,,,0.00,WUHU216DAVISVP2,2013-02-25 11:47:00,
2013-02-25 06:52:00,29.8,22.2,30.15,WSW,238,1.0,3.0,73,0.00,,,0.00,WUHU216DAVISVP2,2013-02-25 11:52:00,
2013-02-25 06:57:00,29.8,22.6,30.15,WSW,238,0.0,3.0,74,0.00,,,0.00,WUHU216DAVISVP2,2013-02-25 11:57:00,
2013-02-25 07:02:00,29.9,22.7,30.15,WSW,238,2.0,3.0,74,0.00,,,0.00,WUHU216DAVISVP2,2013-02-25 12:02:00,
2013-02-25 07:07:00,29.8,22.2,30.15,WSW,238,0.0,3.0,73,0.00,,,0.00,WUHU216DAVISVP2,2013-02-25 12:07:00,
2013-02-25 07:12:00,29.8,22.6,30.15,WSW,238,0.0,3.0,74,0.00,,,0.00,WUHU216DAVISVP2,2013-02-25 12:12:00,
2013-02-25 07:17:00,29.9,22.6,30.15,WSW,238,0.0,3.0,74,0.00,,,0.00,WUHU216DAVISVP2,2013-02-25 12:17:00,
2013-02-25 07:22:00,29.9,22.6,30.15,NW,307,1.0,4.0,74,0.00,,,0.00,WUHU216DAVISVP2,2013-02-25 12:22:00,
2013-02-25 07:27:00,30.1,22.8,30.15,SW,230,0.0,4.0,74,0.00,,,0.00,WUHU216DAVISVP2,2013-02-25 12:27:00,
2013-02-25 07:32:00,30.4,22.8,30.15,WSW,241,1.0,4.0,73,0.00,,,0.00,WUHU216DAVISVP2,2013-02-25 12:32:00,
2013-02-25 07:37:00,30.7,23.1,30.15,SW,235,1.0,4.0,73,0.00,,,0.00,WUHU216DAVISVP2,2013-02-25 12:37:00,
2013-02-25 07:42:00,30.9,23.3,30.15,SW,235,1.0,4.0,73,0.00,,,0.00,WUHU216DAVISVP2,2013-02-25 12:42:00,
2013-02-25 07:47:00,31.1,23.2,30.15,NNW,332,3.0,3.0,72,0.00,,,0.00,WUHU216DAVISVP2,2013-02-25 12:47:00,
2013-02-25 07:52:00,31.4,23.7,30.15,West,265,2.0,4.0,73,0.00,,,0.00,WUHU216DAVISVP2,2013-02-25 12:52:00,
2013-02-25 07:57:00,31.6,24.0,30.15,NW,311,1.0,4.0,73,0.00,,,0.00,WUHU216DAVISVP2,2013-02-25 12:57:00,
2013-02-25 08:02:00,31.9,24.0,30.15,WNW,290,2.0,4.0,72,0.00,,,0.00,WUHU216DAVISVP2,2013-02-25 13:02:00,
2013-02-25 08:07:00,32.1,23.8,30.15,WNW,293,3.0,5.0,71,0.00,,,0.00,WUHU216DAVISVP2,2013-02-25 13:07:00,
2013-02-25 08:12:00,32.5,23.9,30.15,NW,322,3.0,6.0,70,0.00,,,0.00,WUHU216DAVISVP2,2013-02-25 13:12:00,
2013-02-25 08:17:00,32.9,23.9,30.15,NNW,327,2.0,6.0,69,0.00,,,0.00,WUHU216DAVISVP2,2013-02-25 13:17:00,
2013-02-25 08:22:00,33.2,24.2,30.15,West,265,2.0,6.0,69,0.00,,,0.00,WUHU216DAVISVP2,2013-02-25 13:22:00,
2013-02-25 08:27:00,33.5,23.8,30.15,NNW,335,0.0,6.0,67,0.00,,,0.00,WUHU216DAVISVP2,2013-02-25 13:27:00,
2013-02-25 08:32:00,33.7,23.6,30.16,WNW,284,6.0,7.0,66,0.00,,,0.00,WUHU216DAVISVP2,2013-02-25 13:32:00,
2013-02-25 08:37:00,34.0,23.2,30.15,NW,305,1.0,7.0,64,0.00,,,0.00,WUHU216DAVISVP2,2013-02-25 13:37:00,
2013-02-25 08:42:00,34.3,23.5,30.16,WNW,301,2.0,8.0,64,0.00,,,0.00,WUHU216DAVISVP2,2013-02-25 13:42:00,
2013-02-25 08:47:00,34.7,23.5,30.16,NW,310,4.0,8.0,63,0.00,,,0.00,WUHU216DAVISVP2,2013-02-25 13:47:00,
2013-02-25 08:52:00,35.0,23.7,30.16,WNW,287,3.0,8.0,63,0.00,,,0.00,WUHU216DAVISVP2,2013-02-25 13:52:00,
2013-02-25 08:57:00,35.2,23.5,30.17,West,281,3.0,8.0,62,0.00,,,0.00,WUHU216DAVISVP2,2013-02-25 13:57:00,
2013-02-25 09:02:00,35.5,23.8,30.16,West,278,4.0,8.0,62,0.00,,,0.00,WUHU216DAVISVP2,2013-02-25 14:02:00,
2013-02-25 09:07:00,35.7,24.0,30.16,NNW,328,5.0,8.0,62,0.00,,,0.00,WUHU216DAVISVP2,2013-02-25 14:07:00,
2013-02-25 09:13:00,36.1,24.4,30.16,NNW,330,2.0,8.0,62,0.00,,,0.00,WUHU216DAVISVP2,2013-02-25 14:13:00,
2013-02-25 09:18:00,36.7,24.6,30.16,North,359,3.0,7.0,61,0.00,,,0.00,WUHU216DAVISVP2,2013-02-25 14:18:00,
2013-02-25 09:23:00,37.1,24.1,30.16,West,281,3.0,7.0,59,0.00,,,0.00,WUHU216DAVISVP2,2013-02-25 14:23:00,
2013-02-25 09:28:00,37.6,24.2,30.16,NW,314,1.0,7.0,58,0.00,,,0.00,WUHU216DAVISVP2,2013-02-25 14:28:00,
2013-02-25 09:33:00,37.9,24.1,30.17,NNW,332,5.0,8.0,57,0.00,,,0.00,WUHU216DAVISVP2,2013-02-25 14:33:00,
2013-02-25 09:38:00,38.0,24.1,30.17,North,349,2.0,8.0,57,0.00,,,0.00,WUHU216DAVISVP2,2013-02-25 14:38:00,
2013-02-25 09:43:00,38.7,24.4,30.17,WNW,303,3.0,8.0,56,0.00,,,0.00,WUHU216DAVISVP2,2013-02-25 14:43:00,
2013-02-25 09:48:00,39.0,24.2,30.17,North,354,5.0,8.0,55,0.00,,,0.00,WUHU216DAVISVP2,2013-02-25 14:48:00,
2013-02-25 09:53:00,39.0,23.8,30.17,North,4,8.0,12.0,54,0.00,,,0.00,WUHU216DAVISVP2,2013-02-25 14:53:00,
2013-02-25 09:58:00,39.0,24.7,30.17,NNW,339,4.0,12.0,56,0.00,,,0.00,WUHU216DAVISVP2,2013-02-25 14:58:00,
2013-02-25 10:03:00,38.9,23.7,30.17,WNW,300,3.0,12.0,54,0.00,,,0.00,WUHU216DAVISVP2,2013-02-25 15:03:00,
2013-02-25 10:08:00,39.2,23.9,30.17,North,4,5.0,12.0,54,0.00,,,0.00,WUHU216DAVISVP2,2013-02-25 15:08:00,
2013-02-25 10:13:00,39.5,24.2,30.16,NNE,12,4.0,10.0,54,0.00,,,0.00,WUHU216DAVISVP2,2013-02-25 15:13:00,
2013-02-25 10:18:00,40.0,24.7,30.17,North,359,4.0,10.0,54,0.00,,,0.00,WUHU216DAVISVP2,2013-02-25 15:18:00,
2013-02-25 10:23:00,40.3,24.5,30.18,NNW,333,3.0,10.0,53,0.00,,,0.00,WUHU216DAVISVP2,2013-02-25 15:23:00,
2013-02-25 10:28:00,40.2,24.9,30.17,North,354,5.0,8.0,54,0.00,,,0.00,WUHU216DAVISVP2,2013-02-25 15:28:00,
2013-02-25 10:33:00,40.4,24.1,30.17,North,359,2.0,8.0,52,0.00,,,0.00,WUHU216DAVISVP2,2013-02-25 15:33:00,
2013-02-25 10:38:00,40.7,24.9,30.17,NNE,14,3.0,8.0,53,0.00,,,0.00,WUHU216DAVISVP2,2013-02-25 15:38:00,
2013-02-25 10:43:00,41.0,24.7,30.16,North,354,3.0,8.0,52,0.00,,,0.00,WUHU216DAVISVP2,2013-02-25 15:43:00,
2013-02-25 10:48:00,40.9,24.6,30.17,North,354,5.0,9.0,52,0.00,,,0.00,WUHU216DAVISVP2,2013-02-25 15:48:00,
2013-02-25 10:53:00,40.8,24.5,30.16,NNE,26,2.0,9.0,52,0.00,,,0.00,WUHU216DAVISVP2,2013-02-25 15:53:00,
2013-02-25 10:58:00,41.5,25.6,30.17,NNW,334,3.0,9.0,53,0.00,,,0.00,WUHU216DAVISVP2,2013-02-25 15:58:00,
2013-02-25 11:03:00,42.0,26.1,30.17,NE,48,4.0,9.0,53,0.00,,,0.00,WUHU216DAVISVP2,2013-02-25 16:03:00,
2013-02-25 11:08:00,42.3,27.3,30.17,NNE,27,5.0,7.0,55,0.00,,,0.00,WUHU216DAVISVP2,2013-02-25 16:08:00,
2013-02-25 11:13:00,42.1,26.2,30.16,North,354,1.0,7.0,53,0.00,,,0.00,WUHU216DAVISVP2,2013-02-25 16:13:00,
2013-02-25 11:18:00,42.3,26.4,30.16,NNE,16,3.0,7.0,53,0.00,,,0.00,WUHU216DAVISVP2,2013-02-25 16:18:00,
2013-02-25 11:23:00,42.7,26.7,30.16,North,359,3.0,7.0,53,0.00,,,0.00,WUHU216DAVISVP2,2013-02-25 16:23:00,
2013-02-25 11:28:00,42.8,26.8,30.16,NE,35,4.0,8.0,53,0.00,,,0.00,WUHU216DAVISVP2,2013-02-25 16:28:00,
2013-02-25 11:33:00,42.7,26.7,30.16,NNE,25,3.0,8.0,53,0.00,,,0.00,WUHU216DAVISVP2,2013-02-25 16:33:00,
2013-02-25 11:38:00,42.8,26.8,30.16,NE,38,3.0,8.0,53,0.00,,,0.00,WUHU216DAVISVP2,2013-02-25 16:38:00,
2013-02-25 11:43:00,43.2,28.1,30.16,NE,44,3.0,8.0,55,0.00,,,0.00,WUHU216DAVISVP2,2013-02-25 16:43:00,
2013-02-25 11:48:00,43.3,27.3,30.16,NNE,21,4.0,7.0,53,0.00,,,0.00,WUHU216DAVISVP2,2013-02-25 16:48:00,
2013-02-25 11:53:00,43.4,26.9,30.16,NE,44,3.0,7.0,52,0.00,,,0.00,WUHU216DAVISVP2,2013-02-25 16:53:00,
2013-02-25 11:58:00,43.4,26.9,30.17,NE,37,4.0,7.0,52,0.00,,,0.00,WUHU216DAVISVP2,2013-02-25 16:58:00,
2013-02-25 12:03:00,43.6,27.1,30.17,NNW,345,3.0,7.0,52,0.00,,,0.00,WUHU216DAVISVP2,2013-02-25 17:03:00,
2013-02-25 12:08:00,43.7,26.2,30.17,NNE,30,3.0,7.0,50,0.00,,,0.00,WUHU216DAVISVP2,2013-02-25 17:08:00,
2013-02-25 12:13:00,43.8,27.3,30.16,East,80,2.0,7.0,52,0.00,,,0.00,WUHU216DAVISVP2,2013-02-25 17:13:00,
2013-02-25 12:18:00,45.0,26.9,30.16,NW,309,4.0,6.0,49,0.00,,,0.00,WUHU216DAVISVP2,2013-02-25 17:18:00,
2013-02-25 12:23:00,45.1,27.0,30.16,NNE,16,2.0,6.0,49,0.00,,,0.00,WUHU216DAVISVP2,2013-02-25 17:23:00,
2013-02-25 12:28:00,45.3,27.2,30.16,NNE,33,5.0,5.0,49,0.00,,,0.00,WUHU216DAVISVP2,2013-02-25 17:28:00,
2013-02-25 12:33:00,44.6,27.1,30.16,NNE,29,3.0,7.0,50,0.00,,,0.00,WUHU216DAVISVP2,2013-02-25 17:33:00,
2013-02-25 12:38:00,44.6,26.6,30.16,ENE,69,2.0,7.0,49,0.00,,,0.00,WUHU216DAVISVP2,2013-02-25 17:38:00,
2013-02-25 12:43:00,45.0,26.9,30.16,NE,37,3.0,7.0,49,0.00,,,0.00,WUHU216DAVISVP2,2013-02-25 17:43:00,
2013-02-25 12:48:00,45.1,27.0,30.15,ESE,104,0.0,7.0,49,0.00,,,0.00,WUHU216DAVISVP2,2013-02-25 17:48:00,
2013-02-25 12:53:00,45.6,27.0,30.15,NE,42,2.0,7.0,48,0.00,,,0.00,WUHU216DAVISVP2,2013-02-25 17:53:00,
2013-02-25 12:58:00,46.1,27.4,30.14,NE,46,4.0,7.0,48,0.00,,,0.00,WUHU216DAVISVP2,2013-02-25 17:58:00,
2013-02-25 13:03:00,46.5,27.8,30.15,ESE,108,4.0,6.0,48,0.00,,,0.00,WUHU216DAVISVP2,2013-02-25 18:03:00,
2013-02-25 13:08:00,46.4,27.2,30.14,NE,43,1.0,7.0,47,0.00,,,0.00,WUHU216DAVISVP2,2013-02-25 18:08:00,
2013-02-25 13:13:00,46.7,27.4,30.15,NE,37,4.0,7.0,47,0.00,,,0.00,WUHU216DAVISVP2,2013-02-25 18:13:00,
2013-02-25 13:18:00,46.5,27.3,30.15,NNE,19,2.0,7.0,47,0.00,,,0.00,WUHU216DAVISVP2,2013-02-25 18:18:00,
2013-02-25 13:23:00,46.2,26.4,30.15,NNE,31,4.0,7.0,46,0.00,,,0.00,WUHU216DAVISVP2,2013-02-25 18:23:00,
2013-02-25 13:28:00,45.3,26.2,30.15,North,8,1.0,8.0,47,0.00,,,0.00,WUHU216DAVISVP2,2013-02-25 18:28:00,
2013-02-25 13:33:00,45.5,27.9,30.15,ESE,103,0.0,8.0,50,0.00,,,0.00,WUHU216DAVISVP2,2013-02-25 18:33:00,
2013-02-25 13:38:00,45.7,27.1,30.15,East,81,2.0,8.0,48,0.00,,,0.00,WUHU216DAVISVP2,2013-02-25 18:38:00,
2013-02-25 13:43:00,46.0,27.3,30.15,North,359,2.0,5.0,48,0.00,,,0.00,WUHU216DAVISVP2,2013-02-25 18:43:00,
2013-02-25 13:48:00,45.9,28.3,30.15,East,92,2.0,6.0,50,0.00,,,0.00,WUHU216DAVISVP2,2013-02-25 18:48:00,
2013-02-25 13:53:00,46.2,28.6,30.15,SSE,166,3.0,6.0,50,0.00,,,0.00,WUHU216DAVISVP2,2013-02-25 18:53:00,
2013-02-25 13:58:00,46.4,28.3,30.14,East,94,0.0,6.0,49,0.00,,,0.00,WUHU216DAVISVP2,2013-02-25 18:58:00,
2013-02-25 14:03:00,46.4,27.7,30.14,ESE,103,2.0,6.0,48,0.00,,,0.00,WUHU216DAVISVP2,2013-02-25 19:03:00,
2013-02-25 14:08:00,46.2,29.1,30.13,ESE,115,1.0,6.0,51,0.00,,,0.00,WUHU216DAVISVP2,2013-02-25 19:08:00,
2013-02-25 14:13:00,46.1,28.5,30.13,SSE,158,2.0,6.0,50,0.00,,,0.00,WUHU216DAVISVP2,2013-02-25 19:13:00,
2013-02-25 14:18:00,46.0,29.3,30.13,East,82,2.0,6.0,52,0.00,,,0.00,WUHU216DAVISVP2,2013-02-25 19:18:00,
2013-02-25 14:23:00,46.0,28.9,30.13,SSE,158,0.0,9.0,51,0.00,,,0.00,WUHU216DAVISVP2,2013-02-25 19:23:00,
2013-02-25 14:28:00,45.9,28.3,30.12,ENE,60,1.0,9.0,50,0.00,,,0.00,WUHU216DAVISVP2,2013-02-25 19:28:00,
2013-02-25 14:33:00,46.2,29.5,30.12,SE,142,1.0,9.0,52,0.00,,,0.00,WUHU216DAVISVP2,2013-02-25 19:33:00,
2013-02-25 14:38:00,46.8,29.6,30.12,SE,133,1.0,9.0,51,0.00,,,0.00,WUHU216DAVISVP2,2013-02-25 19:38:00,
2013-02-25 14:43:00,46.9,29.2,30.12,SE,145,1.0,4.0,50,0.00,,,0.00,WUHU216DAVISVP2,2013-02-25 19:43:00,
2013-02-25 14:48:00,46.7,29.5,30.12,SSE,155,1.0,6.0,51,0.00,,,0.00,WUHU216DAVISVP2,2013-02-25 19:48:00,
2013-02-25 14:53:00,46.0,28.4,30.13,SSE,164,3.0,9.0,50,0.00,,,0.00,WUHU216DAVISVP2,2013-02-25 19:53:00,
2013-02-25 14:58:00,45.6,29.0,30.13,SSE,147,1.0,9.0,52,0.00,,,0.00,WUHU216DAVISVP2,2013-02-25 19:58:00,
2013-02-25 15:03:00,45.6,28.0,30.13,SE,143,4.0,9.0,50,0.00,,,0.00,WUHU216DAVISVP2,2013-02-25 20:03:00,
2013-02-25 15:08:00,45.3,28.2,30.13,SSE,147,3.0,9.0,51,0.00,,,0.00,WUHU216DAVISVP2,2013-02-25 20:08:00,
2013-02-25 15:13:00,45.2,27.6,30.12,SSE,158,7.0,8.0,50,0.00,,,0.00,WUHU216DAVISVP2,2013-02-25 20:13:00,
2013-02-25 15:18:00,45.2,27.2,30.13,SSE,167,2.0,8.0,49,0.00,,,0.00,WUHU216DAVISVP2,2013-02-25 20:18:00,
2013-02-25 15:23:00,45.6,27.5,30.13,SSE,162,3.0,8.0,49,0.00,,,0.00,WUHU216DAVISVP2,2013-02-25 20:23:00,
2013-02-25 15:28:00,45.3,26.7,30.13,SSE,154,3.0,8.0,48,0.00,,,0.00,WUHU216DAVISVP2,2013-02-25 20:28:00,
2013-02-25 15:33:00,45.2,27.6,30.12,SSE,158,2.0,7.0,50,0.00,,,0.00,WUHU216DAVISVP2,2013-02-25 20:33:00,
2013-02-25 15:38:00,45.3,27.7,30.12,ENE,74,2.0,7.0,50,0.00,,,0.00,WUHU216DAVISVP2,2013-02-25 20:38:00,
2013-02-25 15:43:00,45.7,28.1,30.12,East,79,1.0,7.0,50,0.00,,,0.00,WUHU216DAVISVP2,2013-02-25 20:43:00,
2013-02-25 15:48:00,45.8,27.7,30.12,South,177,2.0,5.0,49,0.00,,,0.00,WUHU216DAVISVP2,2013-02-25 20:48:00,
2013-02-25 15:53:00,45.4,27.3,30.12,East,88,1.0,6.0,49,0.00,,,0.00,WUHU216DAVISVP2,2013-02-25 20:53:00,
2013-02-25 15:58:00,45.2,27.6,30.13,SSE,149,1.0,6.0,50,0.00,,,0.00,WUHU216DAVISVP2,2013-02-25 20:58:00,
2013-02-25 16:03:00,45.0,26.9,30.13,SSE,162,3.0,6.0,49,0.00,,,0.00,WUHU216DAVISVP2,2013-02-25 21:03:00,
2013-02-25 16:08:00,44.9,27.8,30.13,SSE,153,1.0,6.0,51,0.00,,,0.00,WUHU216DAVISVP2,2013-02-25 21:08:00,
2013-02-25 16:13:00,44.8,27.2,30.13,SSE,152,4.0,6.0,50,0.00,,,0.00,WUHU216DAVISVP2,2013-02-25 21:13:00,
2013-02-25 16:18:00,44.7,27.6,30.13,East,99,2.0,6.0,51,0.00,,,0.00,WUHU216DAVISVP2,2013-02-25 21:18:00,
2013-02-25 16:23:00,44.9,27.8,30.14,SSE,162,3.0,5.0,51,0.00,,,0.00,WUHU216DAVISVP2,2013-02-25 21:23:00,
2013-02-25 16:28:00,44.8,27.2,30.13,SE,139,3.0,5.0,50,0.00,,,0.00,WUHU216DAVISVP2,2013-02-25 21:28:00,
2013-02-25 16:33:00,44.7,27.6,30.13,SE,142,3.0,5.0,51,0.00,,,0.00,WUHU216DAVISVP2,2013-02-25 21:33:00,
2013-02-25 16:38:00,44.7,28.6,30.14,East,99,1.0,5.0,53,0.00,,,0.00,WUHU216DAVISVP2,2013-02-25 21:38:00,
2013-02-25 16:43:00,45.1,28.5,30.13,East,84,0.0,4.0,52,0.00,,,0.00,WUHU216DAVISVP2,2013-02-25 21:43:00,
2013-02-25 16:48:00,45.1,28.5,30.14,SSE,159,0.0,4.0,52,0.00,,,0.00,WUHU216DAVISVP2,2013-02-25 21:48:00,
2013-02-25 16:53:00,45.1,28.5,30.14,SE,137,2.0,3.0,52,0.00,,,0.00,WUHU216DAVISVP2,2013-02-25 21:53:00,
2013-02-25 16:58:00,44.7,28.1,30.14,SSE,162,1.0,3.0,52,0.00,,,0.00,WUHU216DAVISVP2,2013-02-25 21:58:00,
2013-02-25 17:03:00,44.5,27.5,30.14,SE,134,1.0,4.0,51,0.00,,,0.00,WUHU216DAVISVP2,2013-02-25 22:03:00,
2013-02-25 17:08:00,44.4,27.9,30.14,SSE,166,3.0,4.0,52,0.00,,,0.00,WUHU216DAVISVP2,2013-02-25 22:08:00,
2013-02-25 17:13:00,44.3,27.3,30.14,SSE,153,3.0,4.0,51,0.00,,,0.00,WUHU216DAVISVP2,2013-02-25 22:13:00,
2013-02-25 17:18:00,44.2,27.2,30.14,SSE,157,0.0,4.0,51,0.00,,,0.00,WUHU216DAVISVP2,2013-02-25 22:18:00,
2013-02-25 17:23:00,44.1,28.1,30.14,SSE,157,1.0,4.0,53,0.00,,,0.00,WUHU216DAVISVP2,2013-02-25 22:23:00,
2013-02-25 17:28:00,43.9,27.9,30.14,SSE,150,4.0,4.0,53,0.00,,,0.00,WUHU216DAVISVP2,2013-02-25 22:28:00,
2013-02-25 17:33:00,43.7,27.2,30.14,SSE,149,3.0,4.0,52,0.00,,,0.00,WUHU216DAVISVP2,2013-02-25 22:33:00,
2013-02-25 17:38:00,43.5,27.0,30.14,SE,141,2.0,4.0,52,0.00,,,0.00,WUHU216DAVISVP2,2013-02-25 22:38:00,
2013-02-25 17:43:00,43.4,27.4,30.14,SE,142,1.0,4.0,53,0.00,,,0.00,WUHU216DAVISVP2,2013-02-25 22:43:00,
2013-02-25 17:48:00,43.2,27.2,30.15,SE,142,0.0,4.0,53,0.00,,,0.00,WUHU216DAVISVP2,2013-02-25 22:48:00,
2013-02-25 17:53:00,43.1,27.6,30.15,SE,142,0.0,4.0,54,0.00,,,0.00,WUHU216DAVISVP2,2013-02-25 22:53:00,
2013-02-25 17:58:00,43.0,27.5,30.15,SE,142,0.0,2.0,54,0.00,,,0.00,WUHU216DAVISVP2,2013-02-25 22:58:00,
2013-02-25 18:04:00,42.7,27.2,30.15,SE,142,0.0,2.0,54,0.00,,,0.00,WUHU216DAVISVP2,2013-02-25 23:04:00,
2013-02-25 18:09:00,42.5,27.0,30.14,SE,142,0.0,2.0,54,0.00,,,0.00,WUHU216DAVISVP2,2013-02-25 23:09:00,
2013-02-25 18:14:00,42.3,26.8,30.15,SE,137,1.0,3.0,54,0.00,,,0.00,WUHU216DAVISVP2,2013-02-25 23:14:00,
2013-02-25 18:19:00,42.1,27.1,30.15,SE,137,0.0,3.0,55,0.00,,,0.00,WUHU216DAVISVP2,2013-02-25 23:19:00,
2013-02-25 18:24:00,41.9,26.9,30.15,SE,137,0.0,3.0,55,0.00,,,0.00,WUHU216DAVISVP2,2013-02-25 23:24:00,
2013-02-25 18:29:00,41.8,26.8,30.15,SE,137,0.0,3.0,55,0.00,,,0.00,WUHU216DAVISVP2,2013-02-25 23:29:00,
2013-02-25 18:34:00,41.6,26.6,30.14,SE,137,0.0,1.0,55,0.00,,,0.00,WUHU216DAVISVP2,2013-02-25 23:34:00,
2013-02-25 18:39:00,41.5,27.0,30.15,SE,137,0.0,1.0,56,0.00,,,0.00,WUHU216DAVISVP2,2013-02-25 23:39:00,
2013-02-25 18:44:00,41.4,27.7,30.15,SE,137,0.0,1.0,58,0.00,,,0.00,WUHU216DAVISVP2,2013-02-25 23:44:00,
2013-02-25 18:49:00,41.3,28.4,30.16,SE,137,0.0,0.0,60,0.00,,,0.00,WUHU216DAVISVP2,2013-02-25 23:49:00,
2013-02-25 18:54:00,41.1,29.5,30.16,SE,137,0.0,0.0,63,0.00,,,0.00,WUHU216DAVISVP2,2013-02-25 23:54:00,
2013-02-25 18:59:00,41.0,29.7,30.16,SE,137,0.0,0.0,64,0.00,,,0.00,WUHU216DAVISVP2,2013-02-25 23:59:00,
2013-02-25 19:04:00,40.7,29.8,30.17,SE,137,0.0,0.0,65,0.00,,,0.00,WUHU216DAVISVP2,2013-02-26 00:04:00,
2013-02-25 19:09:00,40.5,30.0,30.17,SE,137,0.0,0.0,66,0.00,,,0.00,WUHU216DAVISVP2,2013-02-26 00:09:00,
2013-02-25 19:14:00,40.1,29.6,30.17,SE,137,0.0,0.0,66,0.00,,,0.00,WUHU216DAVISVP2,2013-02-26 00:14:00,
2013-02-25 19:19:00,39.8,29.7,30.17,SE,137,0.0,0.0,67,0.00,,,0.00,WUHU216DAVISVP2,2013-02-26 00:19:00,
2013-02-25 19:24:00,39.7,29.7,30.17,SE,137,0.0,0.0,67,0.00,,,0.00,WUHU216DAVISVP2,2013-02-26 00:24:00,
2013-02-25 19:29:00,39.5,29.2,30.17,SE,137,0.0,0.0,66,0.00,,,0.00,WUHU216DAVISVP2,2013-02-26 00:29:00,
2013-02-25 19:34:00,39.4,29.0,30.18,SE,137,0.0,0.0,66,0.00,,,0.00,WUHU216DAVISVP2,2013-02-26 00:34:00,
2013-02-25 19:39:00,39.2,28.9,30.17,SE,137,0.0,0.0,66,0.00,,,0.00,WUHU216DAVISVP2,2013-02-26 00:39:00,
2013-02-25 19:44:00,38.9,29.0,30.18,SE,137,0.0,1.0,67,0.00,,,0.00,WUHU216DAVISVP2,2013-02-26 00:44:00,
2013-02-25 19:49:00,38.6,29.3,30.18,SE,137,0.0,1.0,69,0.00,,,0.00,WUHU216DAVISVP2,2013-02-26 00:49:00,
2013-02-25 19:54:00,38.3,28.4,30.18,SE,137,0.0,1.0,67,0.00,,,0.00,WUHU216DAVISVP2,2013-02-26 00:54:00,
2013-02-25 19:59:00,38.1,27.8,30.18,SE,137,0.0,1.0,66,0.00,,,0.00,WUHU216DAVISVP2,2013-02-26 00:59:00,
2013-02-25 20:04:00,37.8,27.9,30.18,SE,137,0.0,1.0,67,0.00,,,0.00,WUHU216DAVISVP2,2013-02-26 01:04:00,
2013-02-25 20:09:00,37.7,28.4,30.18,SE,137,0.0,1.0,69,0.00,,,0.00,WUHU216DAVISVP2,2013-02-26 01:09:00,
2013-02-25 20:14:00,37.4,28.2,30.18,SE,137,0.0,1.0,69,0.00,,,0.00,WUHU216DAVISVP2,2013-02-26 01:14:00,
2013-02-25 20:19:00,37.1,27.9,30.18,SE,137,0.0,1.0,69,0.00,,,0.00,WUHU216DAVISVP2,2013-02-26 01:19:00,
2013-02-25 20:24:00,36.9,28.1,30.18,SE,137,0.0,0.0,70,0.00,,,0.00,WUHU216DAVISVP2,2013-02-26 01:24:00,
2013-02-25 20:29:00,36.7,29.2,30.18,SE,137,0.0,0.0,74,0.00,,,0.00,WUHU216DAVISVP2,2013-02-26 01:29:00,
2013-02-25 20:34:00,36.5,29.1,30.18,SE,137,0.0,0.0,74,0.00,,,0.00,WUHU216DAVISVP2,2013-02-26 01:34:00,
2013-02-25 20:39:00,36.4,29.6,30.18,SE,137,0.0,0.0,76,0.00,,,0.00,WUHU216DAVISVP2,2013-02-26 01:39:00,
2013-02-25 20:44:00,36.2,29.7,30.19,SE,137,0.0,0.0,77,0.00,,,0.00,WUHU216DAVISVP2,2013-02-26 01:44:00,
2013-02-25 20:49:00,35.9,29.7,30.18,SE,137,0.0,0.0,78,0.00,,,0.00,WUHU216DAVISVP2,2013-02-26 01:49:00,
2013-02-25 20:54:00,35.6,29.7,30.18,SE,137,0.0,0.0,79,0.00,,,0.00,WUHU216DAVISVP2,2013-02-26 01:54:00,
2013-02-25 20:59:00,35.3,29.5,30.19,SE,137,0.0,1.0,79,0.00,,,0.00,WUHU216DAVISVP2,2013-02-26 01:59:00,
2013-02-25 21:04:00,35.2,29.7,30.19,SE,137,0.0,1.0,80,0.00,,,0.00,WUHU216DAVISVP2,2013-02-26 02:04:00,
2013-02-25 21:09:00,35.0,29.5,30.19,SE,137,0.0,1.0,80,0.00,,,0.00,WUHU216DAVISVP2,2013-02-26 02:09:00,
2013-02-25 21:14:00,34.8,29.6,30.18,SE,137,0.0,1.0,81,0.00,,,0.00,WUHU216DAVISVP2,2013-02-26 02:14:00,
2013-02-25 21:19:00,34.7,29.2,30.18,SE,137,0.0,0.0,80,0.00,,,0.00,WUHU216DAVISVP2,2013-02-26 02:19:00,
2013-02-25 21:24:00,34.5,29.0,30.18,SE,137,0.0,0.0,80,0.00,,,0.00,WUHU216DAVISVP2,2013-02-26 02:24:00,
2013-02-25 21:29:00,34.4,28.9,30.18,SE,137,0.0,0.0,80,0.00,,,0.00,WUHU216DAVISVP2,2013-02-26 02:29:00,
2013-02-25 21:34:00,34.2,29.0,30.18,SE,137,0.0,0.0,81,0.00,,,0.00,WUHU216DAVISVP2,2013-02-26 02:34:00,
2013-02-25 21:39:00,34.0,28.8,30.18,SE,137,0.0,0.0,81,0.00,,,0.00,WUHU216DAVISVP2,2013-02-26 02:39:00,
2013-02-25 21:44:00,33.9,28.7,30.18,SE,137,0.0,0.0,81,0.00,,,0.00,WUHU216DAVISVP2,2013-02-26 02:44:00,
2013-02-25 21:49:00,33.7,28.8,30.18,SE,137,0.0,0.0,82,0.00,,,0.00,WUHU216DAVISVP2,2013-02-26 02:49:00,
2013-02-25 21:54:00,33.6,28.7,30.18,SE,137,1.0,1.0,82,0.00,,,0.00,WUHU216DAVISVP2,2013-02-26 02:54:00,
2013-02-25 21:59:00,33.5,28.6,30.18,SE,137,0.0,1.0,82,0.00,,,0.00,WUHU216DAVISVP2,2013-02-26 02:59:00,
2013-02-25 22:04:00,33.4,28.5,30.18,SE,137,0.0,1.0,82,0.00,,,0.00,WUHU216DAVISVP2,2013-02-26 03:04:00,
2013-02-25 22:09:00,33.3,28.1,30.18,SE,137,0.0,1.0,81,0.00,,,0.00,WUHU216DAVISVP2,2013-02-26 03:09:00,
2013-02-25 22:14:00,33.1,27.9,30.18,SE,137,0.0,1.0,81,0.00,,,0.00,WUHU216DAVISVP2,2013-02-26 03:14:00,
2013-02-25 22:19:00,33.2,28.6,30.18,SE,137,0.0,0.0,83,0.00,,,0.00,WUHU216DAVISVP2,2013-02-26 03:19:00,
2013-02-25 22:24:00,33.2,28.6,30.18,SE,137,0.0,0.0,83,0.00,,,0.00,WUHU216DAVISVP2,2013-02-26 03:24:00,
2013-02-25 22:29:00,33.0,28.4,30.18,SE,137,0.0,0.0,83,0.00,,,0.00,WUHU216DAVISVP2,2013-02-26 03:29:00,
2013-02-25 22:34:00,32.9,28.3,30.18,SE,137,0.0,0.0,83,0.00,,,0.00,WUHU216DAVISVP2,2013-02-26 03:34:00,
2013-02-25 22:39:00,32.8,28.5,30.18,SE,137,0.0,0.0,84,0.00,,,0.00,WUHU216DAVISVP2,2013-02-26 03:39:00,
2013-02-25 22:44:00,32.7,28.7,30.18,SE,137,0.0,0.0,85,0.00,,,0.00,WUHU216DAVISVP2,2013-02-26 03:44:00,
2013-02-25 22:49:00,32.4,28.4,30.19,SE,137,0.0,2.0,85,0.00,,,0.00,WUHU216DAVISVP2,2013-02-26 03:49:00,
2013-02-25 22:54:00,32.1,28.4,30.19,SE,138,0.0,3.0,86,0.00,,,0.00,WUHU216DAVISVP2,2013-02-26 03:54:00,
2013-02-25 22:59:00,32.0,28.5,30.18,SE,138,0.0,3.0,87,0.00,,,0.00,WUHU216DAVISVP2,2013-02-26 03:59:00,
2013-02-25 23:04:00,32.4,29.5,30.17,SE,138,0.0,3.0,89,0.00,,,0.00,WUHU216DAVISVP2,2013-02-26 04:04:00,
2013-02-25 23:09:00,32.6,29.7,30.16,SE,138,0.0,2.0,89,0.00,,,0.00,WUHU216DAVISVP2,2013-02-26 04:09:00,
2013-02-25 23:14:00,32.8,29.9,30.16,SE,138,1.0,2.0,89,0.00,,,0.00,WUHU216DAVISVP2,2013-02-26 04:14:00,
2013-02-25 23:19:00,32.7,29.8,30.17,SE,138,0.0,1.0,89,0.00,,,0.00,WUHU216DAVISVP2,2013-02-26 04:19:00,
2013-02-25 23:24:00,32.7,29.8,30.17,SE,138,0.0,1.0,89,0.00,,,0.00,WUHU216DAVISVP2,2013-02-26 04:24:00,
2013-02-25 23:29:00,32.5,29.6,30.19,SSW,202,1.0,3.0,89,0.00,,,0.00,WUHU216DAVISVP2,2013-02-26 04:29:00,
2013-02-25 23:34:00,32.4,29.2,30.18,SSW,202,0.0,3.0,88,0.00,,,0.00,WUHU216DAVISVP2,2013-02-26 04:34:00,
2013-02-25 23:39:00,32.1,28.6,30.19,SSW,202,0.0,3.0,87,0.00,,,0.00,WUHU216DAVISVP2,2013-02-26 04:39:00,
2013-02-25 23:44:00,31.7,28.0,30.19,SSW,202,1.0,3.0,86,0.00,,,0.00,WUHU216DAVISVP2,2013-02-26 04:44:00,
2013-02-25 23:49:00,31.6,28.4,30.18,WNW,292,0.0,2.0,88,0.00,,,0.00,WUHU216DAVISVP2,2013-02-26 04:49:00,
2013-02-25 23:54:00,31.7,28.8,30.19,WNW,292,0.0,2.0,89,0.00,,,0.00,WUHU216DAVISVP2,2013-02-26 04:54:00,
2013-02-25 23:59:00,31.7,28.8,30.19,WNW,292,0.0,2.0,89,0.00,,,0.00,WUHU216DAVISVP2,2013-02-26 04:59:00,